[TLELIST] Archives

 

[TLELIST] Current TLEs

November 30th 2025 PDT

0 HST 1 20580U 90037B 25334.12058112 .00009045 00000-0 31576-3 0 9994 2 20580 28.4702 358.3621 0002114 102.7103 257.3728 15.27779480758060 0 ISS (ZARYA) 1 25544U 98067A 25333.89904475 .00008908 00000-0 16851-3 0 9991 2 25544 51.6312 206.0453 0003727 184.4038 175.6918 15.49196254540863 0 CXO 1 25867U 99040B 25336.03855559 .00000621 00000-0 00000-0 0 9998 2 25867 52.8404 122.9019 8162740 310.7579 0.1545 0.37806858 16576 ...Continue Reading

[TLELIST] Current TLEs

November 30th 2025 PDT

0 HST 1 20580U 90037B 25334.12058112 .00009045 00000-0 31576-3 0 9994 2 20580 28.4702 358.3621 0002114 102.7103 257.3728 15.27779480758060 0 ISS (ZARYA) 1 25544U 98067A 25333.89904475 .00008908 00000-0 16851-3 0 9991 2 25544 51.6312 206.0453 0003727 184.4038 175.6918 15.49196254540863 0 CXO 1 25867U 99040B 25336.03855559 .00000621 00000-0 00000-0 0 9998 2 25867 52.8404 122.9019 8162740 310.7579 0.1545 0.37806858 16576 ...Continue Reading

[TLELIST] Current TLEs

November 29th 2025 PDT

0 HST 1 20580U 90037B 25333.20605602 .00008158 00000-0 28420-3 0 9992 2 20580 28.4702 4.5841 0002109 94.2560 265.8276 15.27762687757927 0 ISS (ZARYA) 1 25544U 98067A 25332.93143523 .00009407 00000-0 17759-3 0 9997 2 25544 51.6312 210.8341 0003738 180.7008 179.3975 15.49177370540716 0 CXO 1 25867U 99040B 25336.03823780 .00000621 00000-0 00000+0 0 9998 2 25867 52.8404 122.9021 8162724 310.7577 0.1110 0.37807319 16570 ...Continue Reading

[TLELIST] Current TLEs

November 28th 2025 PDT

0 HST 1 20580U 90037B 25332.16087280 .00008193 00000-0 28563-3 0 9999 2 20580 28.4701 11.6949 0002095 84.1841 275.8992 15.27745701757764 0 ISS (ZARYA) 1 25544U 98067A 25331.89930486 .00004025 00000-0 80753-4 0 9999 2 25544 51.6314 215.9428 0003868 177.5993 182.5015 15.49155559540559 0 CXO 1 25867U 99040B 25333.39454924 .00000722 00000-0 00000-0 0 9997 2 25867 52.7584 123.0489 8164697 310.7158 0.2585 0.37803381 16565 ...Continue Reading

[TLELIST] Current TLEs

November 28th 2025 PDT

0 HST 1 20580U 90037B 25332.16087280 .00008193 00000-0 28563-3 0 9999 2 20580 28.4701 11.6949 0002095 84.1841 275.8992 15.27745701757764 0 ISS (ZARYA) 1 25544U 98067A 25331.89930486 .00004025 00000-0 80753-4 0 9999 2 25544 51.6314 215.9428 0003868 177.5993 182.5015 15.49155559540559 0 CXO 1 25867U 99040B 25333.39454924 .00000722 00000-0 00000-0 0 9997 2 25867 52.7584 123.0489 8164697 310.7158 0.2585 0.37803381 16565 ...Continue Reading

[TLELIST] Current TLEs

November 27th 2025 PDT

0 HST 1 20580U 90037B 25331.24632759 .00007676 00000-0 26723-3 0 9995 2 20580 28.4702 17.9168 0002069 75.4692 284.6133 15.27730621757620 0 ISS (ZARYA) 1 25544U 98067A 25331.18970139 .00009924 00000-0 18731-3 0 9999 2 25544 51.6312 219.4533 0003813 172.8713 187.2330 15.49112807540440 0 CXO 1 25867U 99040B 25333.39454924 .00000722 00000-0 00000-0 0 9997 2 25867 52.7584 123.0489 8164697 310.7158 0.2585 0.37803381 16565 ...Continue Reading

[TLELIST] Current TLEs

November 26th 2025 PDT

0 HST 1 20580U 90037B 25330.20112252 .00008800 00000-0 30762-3 0 9999 2 20580 28.4701 25.0274 0002025 65.3604 294.7201 15.27714577757462 0 ISS (ZARYA) 1 25544U 98067A 25329.89948173 .00012595 00000-0 23568-3 0 9999 2 25544 51.6312 225.8381 0003834 168.1565 191.9514 15.49084902540246 0 CXO 1 25867U 99040B 25330.74983849 .00000762 00000-0 00000-0 0 9990 2 25867 52.7007 123.1580 8166606 310.7173 0.1897 0.37798395 16559 ...Continue Reading

[TLELIST] Current TLEs

November 25th 2025 PDT

0 HST 1 20580U 90037B 25328.89459890 .00008828 00000-0 30886-3 0 9990 2 20580 28.4701 33.9153 0001962 52.6598 307.4176 15.27692219757265 0 ISS (ZARYA) 1 25544U 98067A 25328.86728725 .00014562 00000-0 27142-3 0 9992 2 25544 51.6314 230.9455 0003896 164.8499 195.2607 15.49056620540082 0 CXO 1 25867U 99040B 25330.74983849 .00000762 00000-0 00000-0 0 9990 2 25867 52.7007 123.1580 8166606 310.7173 0.1897 0.37798395 16559 ...Continue Reading

[TLELIST] Current TLEs

November 25th 2025 PDT

0 HST 1 20580U 90037B 25328.89459890 .00008828 00000-0 30886-3 0 9990 2 20580 28.4701 33.9153 0001962 52.6598 307.4176 15.27692219757265 0 ISS (ZARYA) 1 25544U 98067A 25328.86728725 .00014562 00000-0 27142-3 0 9992 2 25544 51.6314 230.9455 0003896 164.8499 195.2607 15.49056620540082 0 CXO 1 25867U 99040B 25330.74983849 .00000762 00000-0 00000-0 0 9990 2 25867 52.7007 123.1580 8166606 310.7173 0.1897 0.37798395 16559 ...Continue Reading

[TLELIST] Current TLEs

November 24th 2025 PDT

0 HST 1 20580U 90037B 25327.26141731 .00008209 00000-0 28690-3 0 9995 2 20580 28.4698 45.0250 0001849 35.9862 324.0857 15.27666040757011 0 ISS (ZARYA) 1 25544U 98067A 25328.09312817 .00014217 00000-0 26540-3 0 9996 2 25544 51.6317 234.7759 0003932 161.8932 198.2197 15.49034016539961 0 CXO 1 25867U 99040B 25330.74983848 .00000762 00000-0 00000+0 0 9998 2 25867 52.7007 123.1580 8166606 310.7173 0.1897 0.37798395 16559 ...Continue Reading
  • This mailing list is a public mailing list - anyone may join or leave, at any time.
  • This mailing list is announce-only.

International Space Station (ISS) / Hubble Space Telescope (HST) / Chandra X-Ray Observatory Orbital Data via EMAIL

Privacy Policy:

Private list